RYR96RZ LPPR-LEBL

Flight info

Callsign RYR96RZ
Flight time 1h 24m
Altitude 32000
Route BELDU DCT ADORO DCT FITSE DCT DGO N725 ELSAP/N0416F300 N725 LOBAR
Aircraft B738/M-SDE2E3FGHIRWXY/LB1

Departure

Time 2026-05-04 13:55
Airport Francisco de Sá Carneiro Airport (LPPR)

Arrival

Time 2026-05-04 15:19
Airport Josep Tarradellas Barcelona-El Prat Airport (LEBL)
Time Latitude Longitude Altitude Speed Heading
2026-05-04 13:06 41.23975 -8.67298 234 ft 0 kts 108°
2026-05-04 13:46 41.23979 -8.67315 239 ft 3 kts 111°
2026-05-04 13:46 41.23988 -8.67339 239 ft 3 kts 117°
2026-05-04 13:46 41.23998 -8.67363 240 ft 3 kts 124°
2026-05-04 13:46 41.24010 -8.67384 240 ft 3 kts 131°
2026-05-04 13:47 41.24024 -8.67403 238 ft 3 kts 141°
2026-05-04 13:47 41.24040 -8.67418 237 ft 3 kts 157°
2026-05-04 13:47 41.24053 -8.67424 238 ft 0 kts 169°
2026-05-04 13:50 41.24048 -8.67423 240 ft 3 kts 169°
2026-05-04 13:51 41.24037 -8.67420 240 ft 0 kts 169°
2026-05-04 13:51 41.24025 -8.67417 237 ft 5 kts 169°
2026-05-04 13:51 41.23986 -8.67421 237 ft 6 kts 201°
2026-05-04 13:51 41.23954 -8.67454 238 ft 6 kts 227°
2026-05-04 13:52 41.23925 -8.67588 234 ft 8 kts 259°
2026-05-04 13:52 41.23914 -8.67664 234 ft 9 kts 259°
2026-05-04 13:52 41.23903 -8.67738 236 ft 8 kts 259°
2026-05-04 13:53 41.23890 -8.67822 237 ft 10 kts 258°
2026-05-04 13:53 41.23889 -8.67869 233 ft 4 kts 294°
2026-05-04 13:53 41.23914 -8.67888 234 ft 0 kts 347°
2026-05-04 13:54 41.23957 -8.67900 233 ft 26 kts 353°
2026-05-04 13:54 41.24380 -8.68011 236 ft 97 kts 350°
2026-05-04 13:54 41.26309 -8.68589 758 ft 165 kts 346°
2026-05-04 13:55 41.27444 -8.68870 1606 ft 163 kts 346°
2026-05-04 13:55 41.29869 -8.69480 2602 ft 202 kts 346°
2026-05-04 13:55 41.31315 -8.69856 3006 ft 216 kts 346°
2026-05-04 13:56 41.32798 -8.70245 3613 ft 221 kts 346°
2026-05-04 13:56 41.34311 -8.70652 4310 ft 222 kts 346°
2026-05-04 13:56 41.37318 -8.70095 5630 ft 237 kts 37°
2026-05-04 13:57 41.38309 -8.68293 6183 ft 249 kts 66°
2026-05-04 13:57 41.38711 -8.66024 6783 ft 254 kts 81°
2026-05-04 13:58 41.39061 -8.58757 8422 ft 274 kts 86°
2026-05-04 13:58 41.39245 -8.54309 9241 ft 297 kts 86°
2026-05-04 13:58 41.39365 -8.51545 10027 ft 302 kts 86°
2026-05-04 13:59 41.39536 -8.47776 10692 ft 320 kts 86°
2026-05-04 13:59 41.39632 -8.45726 10840 ft 335 kts 86°
2026-05-04 13:59 41.39934 -8.39367 11975 ft 353 kts 86°
2026-05-04 14:00 41.40092 -8.36076 12745 ft 356 kts 86°
2026-05-04 14:00 41.40410 -8.29419 14103 ft 367 kts 86°
2026-05-04 14:00 41.40573 -8.26005 14759 ft 370 kts 86°
2026-05-04 14:01 41.40736 -8.22562 15398 ft 374 kts 86°
2026-05-04 14:01 41.40901 -8.19070 16006 ft 380 kts 86°
2026-05-04 14:01 41.41233 -8.11970 17243 ft 390 kts 86°
2026-05-04 14:02 41.41402 -8.08312 17873 ft 395 kts 86°
2026-05-04 14:02 41.41571 -8.04633 18436 ft 400 kts 86°
2026-05-04 14:02 41.41742 -8.00908 18934 ft 405 kts 86°
2026-05-04 14:02 41.41912 -7.97148 19474 ft 408 kts 86°
2026-05-04 14:03 41.42082 -7.93360 20014 ft 412 kts 86°
2026-05-04 14:03 41.42253 -7.89542 20547 ft 416 kts 86°
2026-05-04 14:03 41.42425 -7.85679 21060 ft 419 kts 86°
2026-05-04 14:03 41.42596 -7.81795 21575 ft 423 kts 87°
2026-05-04 14:04 41.42939 -7.73888 22596 ft 431 kts 87°
2026-05-04 14:04 41.43110 -7.69887 23107 ft 433 kts 87°
2026-05-04 14:04 41.43282 -7.65857 23561 ft 438 kts 87°
2026-05-04 14:05 41.43624 -7.57724 24347 ft 444 kts 87°
2026-05-04 14:05 41.43795 -7.53610 24768 ft 446 kts 88°
2026-05-04 14:05 41.43965 -7.49468 25171 ft 449 kts 88°
2026-05-04 14:06 41.44136 -7.45299 25571 ft 452 kts 88°
2026-05-04 14:06 41.44306 -7.41094 25938 ft 455 kts 88°
2026-05-04 14:06 41.44475 -7.36864 26340 ft 458 kts 88°
2026-05-04 14:06 41.44643 -7.32618 26716 ft 460 kts 88°
2026-05-04 14:07 41.44811 -7.28349 27058 ft 464 kts 88°
2026-05-04 14:07 41.44979 -7.24043 27430 ft 466 kts 88°
2026-05-04 14:07 41.45147 -7.19716 27790 ft 468 kts 88°
2026-05-04 14:07 41.45313 -7.15356 28131 ft 471 kts 88°
2026-05-04 14:08 41.45479 -7.10990 28489 ft 473 kts 88°
2026-05-04 14:08 41.45643 -7.06605 28870 ft 474 kts 88°
2026-05-04 14:08 41.45806 -7.02211 29353 ft 473 kts 88°
2026-05-04 14:08 41.45967 -6.97840 29873 ft 471 kts 88°
2026-05-04 14:09 41.46282 -6.89119 30608 ft 471 kts 88°
2026-05-04 14:09 41.46437 -6.84759 30916 ft 472 kts 88°
2026-05-04 14:10 41.46742 -6.76054 31576 ft 472 kts 88°
2026-05-04 14:10 41.46893 -6.71674 31914 ft 472 kts 88°
2026-05-04 14:10 41.47042 -6.67288 31953 ft 476 kts 88°
2026-05-04 14:11 41.47336 -6.58489 31962 ft 472 kts 88°
2026-05-04 14:11 41.47762 -6.45419 31966 ft 469 kts 88°
2026-05-04 14:12 41.48037 -6.36726 31962 ft 469 kts 88°
2026-05-04 14:13 41.49422 -6.23887 31956 ft 468 kts 68°
2026-05-04 14:13 41.51888 -6.15849 31960 ft 468 kts 66°
2026-05-04 14:14 41.54400 -6.07831 31954 ft 469 kts 66°
2026-05-04 14:14 41.58095 -5.95686 31960 ft 470 kts 67°
2026-05-04 14:15 41.62943 -5.79505 31959 ft 471 kts 67°
2026-05-04 14:16 41.66582 -5.67309 31960 ft 470 kts 68°
2026-05-04 14:17 41.70208 -5.55104 31967 ft 469 kts 68°
2026-05-04 14:18 41.73807 -5.42934 31968 ft 468 kts 68°
2026-05-04 14:19 41.78548 -5.26811 31973 ft 465 kts 68°
2026-05-04 14:19 41.80908 -5.18745 31981 ft 464 kts 68°
2026-05-04 14:20 41.83258 -5.10692 31980 ft 464 kts 68°
2026-05-04 14:20 41.85603 -5.02629 31989 ft 463 kts 68°
2026-05-04 14:21 41.89101 -4.90555 31988 ft 463 kts 69°
2026-05-04 14:21 41.91431 -4.82478 31982 ft 463 kts 69°
2026-05-04 14:22 41.93756 -4.74399 31983 ft 463 kts 69°
2026-05-04 14:22 41.96071 -4.66323 31979 ft 463 kts 69°
2026-05-04 14:23 41.99522 -4.54242 31975 ft 463 kts 69°
2026-05-04 14:24 42.01826 -4.46144 31977 ft 463 kts 69°
2026-05-04 14:24 42.04123 -4.38042 31977 ft 464 kts 69°
2026-05-04 14:25 42.06417 -4.29926 31976 ft 463 kts 69°
2026-05-04 14:25 42.09817 -4.17748 31969 ft 463 kts 73°
2026-05-04 14:26 42.10516 -4.13530 31979 ft 461 kts 84°
2026-05-04 14:26 42.10673 -4.09240 31978 ft 458 kts 93°
2026-05-04 14:26 42.10505 -4.00666 31972 ft 458 kts 94°
2026-05-04 14:27 42.10316 -3.92139 31978 ft 458 kts 94°
2026-05-04 14:27 42.10161 -3.83584 31985 ft 457 kts 93°
2026-05-04 14:28 42.10023 -3.75015 31995 ft 457 kts 93°
2026-05-04 14:28 42.09886 -3.66458 31996 ft 457 kts 93°
2026-05-04 14:29 42.09589 -3.49348 31990 ft 457 kts 93°
2026-05-04 14:30 42.09430 -3.40800 31997 ft 456 kts 94°
2026-05-04 14:31 42.09180 -3.27995 31991 ft 456 kts 94°
2026-05-04 14:32 42.08825 -3.10962 31974 ft 456 kts 94°
2026-05-04 14:32 42.08638 -3.02430 31981 ft 456 kts 94°
2026-05-04 14:33 42.08443 -2.93853 31974 ft 456 kts 94°
2026-05-04 14:33 42.08244 -2.85330 31966 ft 455 kts 94°
2026-05-04 14:34 42.08040 -2.76899 31958 ft 453 kts 95°
2026-05-04 14:34 42.07830 -2.68438 31967 ft 451 kts 95°
2026-05-04 14:35 42.07614 -2.59999 31952 ft 450 kts 95°
2026-05-04 14:35 42.07392 -2.51580 31962 ft 450 kts 95°
2026-05-04 14:36 42.07164 -2.43167 31962 ft 449 kts 95°
2026-05-04 14:36 42.06930 -2.34763 31950 ft 449 kts 95°
2026-05-04 14:37 42.06690 -2.26355 31954 ft 449 kts 95°
2026-05-04 14:37 42.06443 -2.17947 31945 ft 450 kts 96°
2026-05-04 14:38 42.06192 -2.09544 31940 ft 449 kts 96°
2026-05-04 14:38 42.05934 -2.01163 31936 ft 448 kts 96°
2026-05-04 14:39 42.05670 -1.92777 31949 ft 449 kts 96°
2026-05-04 14:39 42.05399 -1.84374 31936 ft 449 kts 96°
2026-05-04 14:40 42.04983 -1.71822 31938 ft 449 kts 97°
2026-05-04 14:40 42.04698 -1.63430 31935 ft 449 kts 97°
2026-05-04 14:41 42.04406 -1.55041 31938 ft 448 kts 97°
2026-05-04 14:42 42.03859 -1.39736 31936 ft 447 kts 97°
2026-05-04 14:42 42.03550 -1.31370 31928 ft 447 kts 97°
2026-05-04 14:43 42.03236 -1.23000 31915 ft 446 kts 97°
2026-05-04 14:43 42.02917 -1.14661 31915 ft 446 kts 98°
2026-05-04 14:44 42.02593 -1.06347 31921 ft 445 kts 98°
2026-05-04 14:44 42.02263 -0.98056 31919 ft 447 kts 98°
2026-05-04 14:45 42.01927 -0.89696 31910 ft 447 kts 98°
2026-05-04 14:45 42.01112 -0.81497 31903 ft 436 kts 112°
2026-05-04 14:46 41.99309 -0.73716 31925 ft 438 kts 114°
2026-05-04 14:46 41.97461 -0.65860 31893 ft 442 kts 114°
2026-05-04 14:47 41.95650 -0.57966 31898 ft 442 kts 114°
2026-05-04 14:47 41.93852 -0.50077 31902 ft 441 kts 114°
2026-05-04 14:48 41.92052 -0.42208 31901 ft 440 kts 114°
2026-05-04 14:48 41.90287 -0.34505 31883 ft 422 kts 115°
2026-05-04 14:49 41.88575 -0.27064 31898 ft 416 kts 115°
2026-05-04 14:49 41.86855 -0.19648 31509 ft 414 kts 115°
2026-05-04 14:50 41.86007 -0.15982 31177 ft 410 kts 115°
2026-05-04 14:50 41.85163 -0.12339 30825 ft 407 kts 115°
2026-05-04 14:50 41.84326 -0.08735 30479 ft 404 kts 115°
2026-05-04 14:50 41.83491 -0.05147 30144 ft 401 kts 116°
2026-05-04 14:51 41.82661 -0.01586 29766 ft 399 kts 116°
2026-05-04 14:51 41.81836 0.01949 29358 ft 396 kts 116°
2026-05-04 14:51 41.81016 0.05456 29010 ft 392 kts 116°
2026-05-04 14:51 41.80204 0.08928 28653 ft 388 kts 115°
2026-05-04 14:52 41.79400 0.12360 28296 ft 385 kts 115°
2026-05-04 14:52 41.78599 0.15772 27947 ft 381 kts 115°
2026-05-04 14:52 41.77804 0.19147 27604 ft 378 kts 115°
2026-05-04 14:52 41.77013 0.22496 27256 ft 375 kts 115°
2026-05-04 14:53 41.76230 0.25810 26906 ft 372 kts 115°
2026-05-04 14:53 41.75463 0.29048 26565 ft 370 kts 115°
2026-05-04 14:53 41.74699 0.32353 26226 ft 369 kts 112°
2026-05-04 14:53 41.74156 0.35716 25891 ft 371 kts 107°
2026-05-04 14:54 41.73754 0.39137 25555 ft 370 kts 105°
2026-05-04 14:54 41.73396 0.42532 25216 ft 369 kts 105°
2026-05-04 14:54 41.73035 0.45932 24887 ft 368 kts 105°
2026-05-04 14:54 41.72661 0.49320 24538 ft 367 kts 105°
2026-05-04 14:55 41.72275 0.52684 24195 ft 365 kts 105°
2026-05-04 14:55 41.71881 0.56035 23859 ft 364 kts 105°
2026-05-04 14:55 41.71481 0.59377 23511 ft 363 kts 105°
2026-05-04 14:55 41.71077 0.62710 23113 ft 362 kts 105°
2026-05-04 14:56 41.70671 0.66044 22742 ft 361 kts 106°
2026-05-04 14:56 41.70276 0.69276 22398 ft 358 kts 105°
2026-05-04 14:56 41.69866 0.72617 22048 ft 356 kts 105°
2026-05-04 14:56 41.69467 0.75864 21709 ft 353 kts 105°
2026-05-04 14:57 41.69067 0.79109 21370 ft 351 kts 105°
2026-05-04 14:57 41.68676 0.82274 21046 ft 349 kts 105°
2026-05-04 14:57 41.68275 0.85510 20718 ft 347 kts 105°
2026-05-04 14:57 41.67880 0.88683 20391 ft 345 kts 105°
2026-05-04 14:58 41.67490 0.91818 20074 ft 346 kts 105°
2026-05-04 14:58 41.67088 0.95030 19724 ft 345 kts 105°
2026-05-04 14:58 41.66693 0.98189 19398 ft 343 kts 104°
2026-05-04 14:58 41.66306 1.01284 19072 ft 341 kts 104°
2026-05-04 14:59 41.65914 1.04414 18768 ft 340 kts 104°
2026-05-04 14:59 41.65522 1.07525 18448 ft 338 kts 104°
2026-05-04 14:59 41.64741 1.13706 17778 ft 335 kts 104°
2026-05-04 15:00 41.64354 1.16760 17491 ft 332 kts 104°
2026-05-04 15:00 41.63968 1.19796 17171 ft 331 kts 104°
2026-05-04 15:00 41.63583 1.22818 16847 ft 329 kts 104°
2026-05-04 15:01 41.62816 1.28821 16217 ft 327 kts 103°
2026-05-04 15:01 41.62432 1.31822 15897 ft 326 kts 104°
2026-05-04 15:01 41.62049 1.34807 15594 ft 325 kts 103°
2026-05-04 15:01 41.61671 1.37740 15301 ft 324 kts 103°
2026-05-04 15:02 41.61288 1.40711 14978 ft 324 kts 103°
2026-05-04 15:02 41.60905 1.43678 14667 ft 323 kts 103°
2026-05-04 15:02 41.60523 1.46627 14357 ft 322 kts 103°
2026-05-04 15:02 41.60141 1.49571 14062 ft 322 kts 103°
2026-05-04 15:03 41.59757 1.52525 13751 ft 323 kts 103°
2026-05-04 15:03 41.59369 1.55496 13374 ft 324 kts 103°
2026-05-04 15:03 41.58983 1.58462 13041 ft 323 kts 103°
2026-05-04 15:03 41.58600 1.61401 12716 ft 322 kts 103°
2026-05-04 15:04 41.58215 1.64346 12395 ft 321 kts 103°
2026-05-04 15:04 41.57830 1.67275 12089 ft 320 kts 103°
2026-05-04 15:04 41.57433 1.70192 11801 ft 317 kts 106°
2026-05-04 15:04 41.56904 1.73029 11536 ft 312 kts 109°
2026-05-04 15:05 41.56323 1.75765 11309 ft 309 kts 110°
2026-05-04 15:05 41.55727 1.78512 11050 ft 306 kts 110°
2026-05-04 15:05 41.55174 1.81082 10821 ft 305 kts 110°
2026-05-04 15:05 41.54588 1.83823 10439 ft 307 kts 109°
2026-05-04 15:06 41.54005 1.86574 10089 ft 309 kts 109°
2026-05-04 15:06 41.53427 1.89330 9772 ft 308 kts 109°
2026-05-04 15:06 41.52864 1.92029 9733 ft 296 kts 109°
2026-05-04 15:07 41.51784 1.97211 9255 ft 289 kts 109°
2026-05-04 15:07 41.51239 1.99817 8987 ft 288 kts 109°
2026-05-04 15:07 41.50700 2.02391 8678 ft 288 kts 109°
2026-05-04 15:07 41.50165 2.04951 8378 ft 287 kts 109°
2026-05-04 15:08 41.49629 2.07507 8067 ft 286 kts 109°
2026-05-04 15:08 41.49094 2.10061 7770 ft 284 kts 109°
2026-05-04 15:08 41.48567 2.12571 7477 ft 283 kts 109°
2026-05-04 15:08 41.48030 2.15126 7174 ft 283 kts 108°
2026-05-04 15:09 41.47508 2.17612 6899 ft 282 kts 109°
2026-05-04 15:09 41.46979 2.20128 6609 ft 281 kts 109°
2026-05-04 15:09 41.46450 2.22638 6333 ft 281 kts 109°
2026-05-04 15:10 41.45390 2.27654 5715 ft 281 kts 108°
2026-05-04 15:10 41.45058 2.30217 5377 ft 284 kts 89°
2026-05-04 15:10 41.46352 2.35132 4836 ft 283 kts 66°
2026-05-04 15:11 41.47189 2.37510 4576 ft 280 kts 66°
2026-05-04 15:11 41.48003 2.39859 4309 ft 277 kts 70°
2026-05-04 15:11 41.48222 2.42357 4026 ft 270 kts 104°
2026-05-04 15:11 41.47388 2.44505 3775 ft 260 kts 139°
2026-05-04 15:12 41.45838 2.45567 3557 ft 248 kts 175°
2026-05-04 15:12 41.44216 2.45187 3436 ft 236 kts 211°
2026-05-04 15:12 41.43018 2.43797 3363 ft 223 kts 228°
2026-05-04 15:12 41.42073 2.42210 3215 ft 213 kts 232°
2026-05-04 15:13 41.41268 2.40612 3082 ft 201 kts 235°
2026-05-04 15:13 41.40555 2.39089 3017 ft 195 kts 238°
2026-05-04 15:13 41.39920 2.37519 2998 ft 192 kts 242°
2026-05-04 15:13 41.39339 2.35923 2991 ft 190 kts 243°
2026-05-04 15:14 41.38786 2.34342 2981 ft 185 kts 243°
2026-05-04 15:14 41.38248 2.32782 2987 ft 185 kts 244°
2026-05-04 15:14 41.37717 2.31239 2989 ft 182 kts 244°
2026-05-04 15:14 41.37195 2.29718 2989 ft 181 kts 243°
2026-05-04 15:15 41.36667 2.28181 2913 ft 184 kts 243°
2026-05-04 15:15 41.36130 2.26614 2673 ft 182 kts 243°
2026-05-04 15:15 41.35620 2.25125 2444 ft 172 kts 243°
2026-05-04 15:16 41.34680 2.22382 2057 ft 152 kts 244°
2026-05-04 15:16 41.34239 2.21095 1806 ft 149 kts 243°
2026-05-04 15:16 41.33393 2.18626 1428 ft 147 kts 243°
2026-05-04 15:17 41.32967 2.17382 1205 ft 146 kts 243°
2026-05-04 15:17 41.32133 2.14941 804 ft 143 kts 244°
2026-05-04 15:17 41.31720 2.13734 596 ft 143 kts 245°
2026-05-04 15:18 41.31310 2.12533 408 ft 139 kts 245°
2026-05-04 15:18 41.30928 2.11414 293 ft 129 kts 248°
2026-05-04 15:18 41.30560 2.10330 72 ft 129 kts 246°
2026-05-04 15:19 41.29999 2.08683 21 ft 45 kts 245°
2026-05-04 15:19 41.29932 2.08473 22 ft 21 kts 257°
2026-05-04 15:19 41.29937 2.08168 17 ft 9 kts 275°
2026-05-04 15:20 41.29942 2.08095 17 ft 4 kts 275°
2026-05-04 15:20 41.29943 2.08087 17 ft 0 kts 275°
2026-05-04 15:20 41.29943 2.08077 17 ft 5 kts 275°
2026-05-04 15:21 41.29991 2.08022 17 ft 13 kts 334°
2026-05-04 15:21 41.30072 2.07971 18 ft 8 kts 335°
2026-05-04 15:21 41.30199 2.07972 18 ft 6 kts 14°
2026-05-04 15:22 41.30218 2.07979 19 ft 1 kts 14°
2026-05-04 15:22 41.30223 2.07980 20 ft 0 kts 14°